sat.trackr.live / text

‹ back to catalog

KUIPER-00272

NORAD 68588 · 2026-072R

PAYLOAD ACTIVE UNKNOWN

§ Identity

Operator
Country
US
Launch date
2026-04-04
Launch site
AFETR
Launch vehicle
Mass (kg)
RCS (m²)

External: N2YO · Heavens-Above · Gunter

§ Orbital elements

Epoch: 2026-05-25T04:00:03.998880Z

Period
97.26 min
Inclination
51.8981°
Eccentricity
0.0000898
Mean motion
14.80603218 rev/d
Perigee alt
626.8 km
Apogee alt
628.0 km
Semi-major
7,005.6 km
B*
-4.4834e-3
RAAN
294.9450°
Arg perigee
150.4127°
Mean anomaly
211.8237°
Rev number
542

§ Raw data

KUIPER-002721 68588U 26072R   26145.16671295 -.00034773  00000+0 -44834-2 0  99972 68588  51.8981 294.9450 0000898 150.4127 211.8237 14.80603218  5425

JSON: /api/v1/satellites/68588 · /tle

For live sub-satellite position, see the globe view (requires WebGL).

§ Visibility from observer

Set your observer location to see the next 7 days of passes ≥ 10°. The values pass through the URL so the page stays shareable.

No JS? Fill the form by hand. The geolocation button needs JavaScript.